Location: Catacaguana
(10.4120°N, 66.7591°W)
Time: 04:45:44
(UTC+00:00)

Cosmos 2098 Rocket - Pass Details

Date: 27 May 2022
Orbit: 364 x 1152 km, 82.9° (Epoch: 26 June)

Event Time Altitude Azimuth Distance (km) Brightness Sun altitude
Rises 00:15:52 0° 347° (NNW) 2,194 6.5 -21.3°
Reaches altitude 10° 00:17:49 10° 340° (NNW) 1,350 5.5 -21.8°
Enters shadow 00:20:28 42° 272° (W) 546 3.2 -22.3°
